[[{"header":{"parameterUnit":"m.s-1","parameterCategory":2,"la1":30.2991,"la2":30.254,"lo1":-89.0895,"lo2":-89.0444,"dy":0.0017,"dx":0.0017,"nx":28,"ny":28,"refTime":"2024-03-17T09:00:00:Z","depth":"0","parameterNumber":2,"parameterNumberName":"U-component_of_CURRENTS"},"data":[0,0,0,0,0,0,0,0,0,0,0,0,0,0,0,0,0,0,0,0,0,0,0,0,0,0,0,0,0,0,0,0,0,0,0,0,0,0,0,0,0,0,0,0,0,0,0,0,0,0,0,0,0,0,0,0,0,0,0.3631,0.3631,0,0.3599,0.3598,0.3598,0.358,0.3579,0.3579,0.3579,0.3583,0.3584,0.3584,0,0,0,0,0,0,0,0,0,0,0,0,0,0.3699,0.3698,0.3631,0.3631,0.3631,0.3599,0.3598,0.3598,0.358,0.3579,0.3579,0.3579,0.3583,0.3584,0.3584,0,0,0,0,0,0,0,0,0,0,0,0,0,0.3668,0.3698,0.3632,0.3618,0.3616,0.3599,0.3598,0.3598,0.358,0.3579,0.3579,0.3579,0.3583,0.3583,0.3584,0.3587,0,0,0.3584,0.3585,0,0,0,0,0,0,0,0,0.367,0.3666,0.362,0.3619,0.3617,0.3593,0.3624,0.3596,0.358,0.3593,0.3579,0.3579,0.359,0.359,0.3583,0.3587,0.3587,0.3585,0.3585,0.3585,0.3585,0,0,0,0,0,0,0,0.3672,0.3667,0.3618,0.362,0.3618,0.362,0.3616,0.3618,0.3593,0.3592,0.3591,0.3587,0.3589,0.3583,0.3583,0.3587,0.3584,0.3585,0.3585,0.3585,0.3639,0.364,0,0,0,0,0,0,0.3675,0.3669,0.362,0.3617,0.3644,0.3619,0.3614,0.3601,0.3592,0.3591,0.3587,0.3586,0.3583,0.3583,0.3584,0.3635,0.3585,0.3585,0.3585,0.3637,0.3639,0.364,0,0,0,0,0,0,0.3676,0.367,0.3621,0.3643,0.3637,0.3618,0.3603,0.36,0.3601,0.3588,0.3587,0.3593,0.3583,0.3583,0.3597,0.3633,0.3585,0.3585,0.3636,0.3638,0.364,0.3707,0,0,0,0,0,0,0.3678,0.3671,0.3672,0.3643,0.3636,0.3621,0.3603,0.36,0.3599,0.3597,0.3593,0.3592,0.3583,0.3597,0.3597,0.3633,0.3586,0.3634,0.3637,0.3639,0.3703,0.3711,0.3718,0,0,0,0,0,0.3681,0.3685,0.3672,0.3667,0.3634,0.3621,0.3618,0.3604,0.3599,0.3604,0.3603,0.3593,0.3613,0.3598,0.3598,0.3634,0.3633,0.3636,0.3639,0.37,0.3709,0.3717,0,0,0,0,0,0,0.3712,0.3683,0.3668,0.3662,0.3646,0.3618,0.3627,0.3612,0.3613,0.3616,0.3603,0.3603,0.3634,0.3621,0.3605,0.3657,0.3624,0.3627,0.367,0.3679,0.3686,0.3722,0.3586,0,0,0,0,0,0.3719,0.3724,0.3685,0.3688,0.3677,0.3653,0.3649,0.3634,0.3626,0.3626,0.3621,0.3625,0.3645,0.365,0.3658,0.368,0.3707,0.3705,0.3712,0.3718,0.3748,0.3811,0.3828,0.365,0.365,0.365,0,0,0.373,0.3721,0.3721,0.3697,0.3685,0.3681,0.3651,0.3647,0.3657,0.3628,0.3649,0.3651,0.3657,0.3687,0.37,0.3681,0.3784,0.3722,0.3727,0.3754,0.3816,0.3834,0.3849,0.3652,0.3651,0.3651,0,0,0.3763,0.3747,0.3757,0.3749,0.3732,0.3715,0.3716,0.3687,0.3688,0.3693,0.3694,0.372,0.3719,0.3748,0.3759,0.3812,0.3822,0.3807,0.3872,0.3933,0.3949,0.3963,0.4025,0.4044,0.3808,0.3808,0.3808,0,0.378,0.3776,0.376,0.3768,0.3767,0.3733,0.3736,0.3737,0.3721,0.3744,0.3709,0.3762,0.3757,0.3834,0.3851,0.3833,0.3867,0.3837,0.3945,0.3959,0.3973,0.4033,0.4053,0.3812,0.3811,0.3811,0.3811,0,0.3809,0.381,0.3819,0.3818,0.382,0.3818,0.3805,0.3817,0.3805,0.381,0.3866,0.386,0.3899,0.3899,0.3889,0.3991,0.3985,0.3949,0.3926,0.3995,0.4053,0.4074,0.3817,0.3816,0.3815,0.3814,0,0,0.3819,0.3834,0.3835,0.3835,0.3839,0.3834,0.3876,0.3897,0.3933,0.3933,0.3995,0.4027,0.4033,0.4049,0.4045,0.4094,0.4208,0.4067,0.4068,0.4136,0.4357,0.4271,0.4284,0.4191,0.4194,0.4197,0.4361,0,0.3836,0.3856,0.3868,0.3885,0.3877,0.389,0.393,0.3962,0.3981,0.4035,0.4071,0.4115,0.4088,0.4104,0.416,0.4198,0.4264,0.4168,0.4274,0.4278,0.4199,0.4306,0.4103,0.4225,0.4381,0.4384,0.4386,0,0.3834,0.3853,0.3868,0.3898,0.39,0.3919,0.3976,0.4006,0.4098,0.4124,0.4201,0.4221,0.4324,0.4259,0.4402,0.4343,0.4372,0.4389,0.4395,0.4311,0.423,0.418,0.4255,0.417,0.4417,0.4415,0.4413,0,0.3806,0.3839,0.3851,0.3859,0.3899,0.3929,0.3957,0.4036,0.4084,0.4189,0.4245,0.4351,0.441,0.4474,0.4524,0.4472,0.4668,0.459,0.4553,0.4547,0.4396,0.4369,0.4407,0.4705,0.4705,0.4704,0.4704,0,0.3794,0.3805,0.3836,0.3841,0.3875,0.3909,0.3963,0.4022,0.4125,0.4206,0.4287,0.4381,0.4466,0.4576,0.4596,0.4659,0.4735,0.4609,0.4597,0.441,0.4385,0.4316,0.4271,0.471,0.4709,0.4708,0.4707,0,0.3762,0.378,0.3791,0.3838,0.3854,0.3876,0.3958,0.4005,0.4111,0.4226,0.427,0.4447,0.4582,0.4664,0.4785,0.4748,0.4673,0.4802,0.4581,0.4539,0.4355,0.432,0.4207,0.409,0.4775,0.4774,0.4774,0,0.3745,0.3747,0.3777,0.3784,0.3807,0.3846,0.3879,0.3983,0.4041,0.4262,0.4322,0.4511,0.4627,0.4791,0.4756,0.4798,0.4673,0.462,0.4468,0.4361,0.4315,0.4142,0.4039,0.4306,0.4301,0.4297,0.4294,0,0.3721,0.3729,0.3737,0.3755,0.3777,0.3815,0.3872,0.392,0.4058,0.4169,0.4354,0.4476,0.4631,0.4585,0.4625,0.4614,0.4381,0.4541,0.449,0.4018,0.3774,0.3648,0.4197,0.4261,0.4264,0.4267,0.4268,0.427,0.3688,0.3693,0.3695,0.3706,0.3736,0.3771,0.3756,0.3844,0.3935,0.4051,0.4267,0.4348,0.4392,0.4409,0.4385,0.418,0.4168,0.4025,0.402,0.3877,0.3664,0.4147,0.4146,0.4148,0.415,0.4152,0.4154,0,0.3624,0.3638,0.3649,0.3643,0.3634,0.3687,0.3729,0.3689,0.3729,0.3897,0.4018,0.4015,0.3975,0.3969,0.383,0.3689,0.3502,0.3595,0.332,0.3266,0.3763,0.3642,0.3455,0.3455,0.3455,0.3455,0.3456,0.3456,0.3591,0.3565,0.3572,0.3525,0.3524,0.3466,0.3456,0.3435,0.3489,0.3479,0.3451,0.353,0.3607,0.3598,0.3447,0.3361,0.3137,0.2956,0.3003,0.338,0.3418,0.3456,0.3333,0.3085,0.3084,0.2333,0.2328,0.2324]},{"header":{"parameterUnit":"m.s-1","parameterCategory":2,"la1":30.2991,"la2":30.254,"lo1":-89.0895,"lo2":-89.0444,"dy":0.0017,"dx":0.0017,"nx":28,"ny":28,"refTime":"2024-03-17T09:00:00:Z","depth":"0","parameterNumber":3,"parameterNumberName":"V-component_of_CURRENTS"},"data":[0,0,0,0,0,0,0,0,0,0,0,0,0,0,0,0,0,0,0,0,0,0,0,0,0,0,0,0,0,0,0,0,0,0,0,0,0,0,0,0,0,0,0,0,0,0,0,0,0,0,0,0,0,0,0,0,0,0,0.0073,0.0073,0,0.0016,0.0015,0.0015,-0.0039,-0.004,-0.004,-0.004,-0.0138,-0.014,-0.0142,0,0,0,0,0,0,0,0,0,0,0,0,0,0.0089,0.0089,0.0073,0.0073,0.0072,0.0017,0.0015,0.0014,-0.0039,-0.004,-0.004,-0.0041,-0.0137,-0.0139,-0.0142,0,0,0,0,0,0,0,0,0,0,0,0,0,0.006,0.0089,0.0073,0.0041,0.0038,0.0017,0.0015,0.0014,-0.0039,-0.004,-0.004,-0.0041,-0.0136,-0.0139,-0.0142,-0.015,0,0,-0.0152,-0.0154,0,0,0,0,0,0,0,0,0.0062,0.0059,0.0046,0.0043,0.0039,-0.0002,-0.0014,-0.0042,-0.0039,-0.0013,-0.004,-0.0041,-0.0094,-0.0101,-0.0113,-0.0155,-0.0159,-0.0153,-0.0155,-0.0156,-0.0157,0,0,0,0,0,0,0,0.0064,0.0061,0.0048,0.0046,0.0042,0.0014,0.0009,-0.002,-0.0052,-0.0015,-0.0019,-0.002,-0.0096,-0.011,-0.0116,-0.016,-0.0153,-0.0156,-0.0158,-0.0159,-0.0213,-0.0213,0,0,0,0,0,0,0.008,0.0063,0.005,0.0046,0.0052,0.0014,0.0009,0.0009,-0.0051,-0.006,-0.0019,-0.0022,-0.0104,-0.0112,-0.012,-0.0122,-0.0156,-0.0159,-0.0161,-0.0214,-0.0213,-0.0213,0,0,0,0,0,0,0.008,0.0079,0.0052,0.0055,0.005,0.0015,0.0016,0.0009,-0.0001,-0.0053,-0.0064,-0.0021,-0.0105,-0.0115,-0.0138,-0.0127,-0.0161,-0.0164,-0.0215,-0.0214,-0.0213,-0.0134,0,0,0,0,0,0,0.0081,0.008,0.0084,0.0057,0.0051,0.005,0.0017,0.0008,-0.0,-0.0004,-0.0058,-0.0068,-0.0106,-0.0133,-0.0141,-0.0132,-0.0166,-0.0215,-0.0214,-0.0213,-0.0138,-0.0131,-0.0125,0,0,0,0,0,0.0082,0.0092,0.0084,0.0083,0.0058,0.0052,0.0046,0.0016,0.0001,0.0003,-0.0034,-0.0066,-0.0133,-0.0135,-0.0145,-0.0137,-0.0216,-0.0215,-0.0213,-0.014,-0.0132,-0.0126,0,0,0,0,0,0,0.0099,0.0087,0.0078,0.0084,0.0074,0.0044,0.0042,0.0026,-0.0001,-0.0008,-0.0059,-0.0071,-0.009,-0.0121,-0.0122,-0.015,-0.018,-0.0181,-0.0121,-0.0114,-0.0108,-0.0082,-0.0169,0,0,0,0,0,0.0108,0.011,0.0098,0.01,0.0101,0.0074,0.0067,0.0051,0.0026,0.0013,-0.0022,-0.0061,-0.0093,-0.0108,-0.0143,-0.0153,-0.0164,-0.0155,-0.0149,-0.0143,-0.0129,-0.0137,-0.013,-0.0209,-0.0209,-0.0209,0,0,0.0112,0.0107,0.0107,0.0104,0.0091,0.0103,0.0067,0.0065,0.007,0.0007,-0.0,-0.0041,-0.0092,-0.0108,-0.0118,-0.0132,-0.0124,-0.0142,-0.0137,-0.0126,-0.0135,-0.0127,-0.012,-0.0208,-0.0208,-0.0208,0,0,0.0131,0.0124,0.0137,0.0137,0.0132,0.0123,0.0129,0.011,0.0097,0.0088,0.0041,0.0014,-0.0032,-0.0064,-0.0087,-0.0065,-0.0093,-0.0079,-0.0025,-0.0032,-0.0025,-0.0019,-0.0006,0.0001,-0.0073,-0.0073,-0.0073,0,0.0136,0.0156,0.0139,0.0157,0.0164,0.014,0.0164,0.015,0.0125,0.0125,0.0096,0.0039,-0.001,-0.0024,-0.0022,-0.005,-0.005,-0.0048,-0.0022,-0.0017,-0.0012,-0.0,0.0006,-0.0069,-0.0069,-0.007,-0.007,0,0.0171,0.0187,0.0196,0.0213,0.0219,0.0234,0.0226,0.0227,0.021,0.0197,0.0181,0.0118,0.0087,0.0063,0.0023,0.0032,0.0024,-0.0014,-0.0036,0.0001,0.0011,0.0016,-0.0063,-0.0065,-0.0066,-0.0067,0,0,0.0183,0.0216,0.022,0.0246,0.0254,0.0269,0.0281,0.0295,0.0319,0.0279,0.0303,0.023,0.02,0.0172,0.0119,0.0108,0.0132,0.0068,0.0066,0.0092,0.014,0.0121,0.0124,0.0102,0.0103,0.0104,0.0141,0,0.0218,0.0273,0.0275,0.0329,0.0362,0.0351,0.0373,0.0379,0.0373,0.039,0.033,0.0327,0.0241,0.0233,0.0204,0.0153,0.0147,0.0127,0.0092,0.0091,0.0077,0.0129,0.0128,0.016,0.0145,0.0146,0.0147,0,0.0258,0.0292,0.0356,0.0408,0.0422,0.045,0.0495,0.0512,0.0519,0.0514,0.0493,0.0452,0.0424,0.0347,0.0284,0.0279,0.0219,0.0176,0.0175,0.0134,0.008,0.0115,0.0169,0.0012,0.0154,0.0153,0.0153,0,0.0296,0.0352,0.0412,0.0427,0.0478,0.0506,0.0533,0.0554,0.0591,0.0603,0.0638,0.0578,0.0578,0.0485,0.0381,0.0339,0.0331,0.0255,0.0186,0.0184,0.0165,0.016,0.0071,0.0221,0.0221,0.0221,0.0221,0,0.0339,0.0383,0.044,0.0473,0.0553,0.0565,0.0647,0.0659,0.0704,0.0784,0.071,0.0768,0.0615,0.0582,0.0452,0.0355,0.0383,0.0218,0.0196,0.0193,0.0191,0.0036,-0.0079,0.0222,0.0222,0.0222,0.0221,0,0.0365,0.0401,0.0476,0.0546,0.0576,0.0633,0.0726,0.0789,0.082,0.0924,0.094,0.0931,0.0902,0.0754,0.0637,0.0472,0.0268,0.0319,0.0338,0.0316,0.0062,-0.0048,-0.0159,-0.0241,0.0237,0.0237,0.0236,0,0.0381,0.0424,0.0531,0.0592,0.0628,0.0717,0.0789,0.0841,0.0921,0.1042,0.111,0.112,0.1173,0.0993,0.0717,0.051,0.032,0.0327,0.0221,0.007,-0.0069,-0.0145,-0.0212,0.0238,0.0237,0.0237,0.0237,0,0.0412,0.0455,0.0528,0.0654,0.0746,0.0848,0.0957,0.1041,0.1135,0.1254,0.1419,0.1484,0.1323,0.113,0.0809,0.0627,0.019,0.0315,0.0153,-0.0074,-0.0155,-0.0251,0.0202,0.0236,0.0236,0.0236,0.0236,0.0236,0.0445,0.0505,0.0617,0.0732,0.084,0.0977,0.1086,0.1228,0.1404,0.1624,0.1663,0.1832,0.1486,0.1067,0.0781,0.0225,0.02,0.0033,-0.0081,-0.0137,-0.0246,0.0214,0.0215,0.0215,0.0215,0.0215,0.0215,0,0.0501,0.0577,0.0687,0.0843,0.0969,0.1015,0.1204,0.134,0.1582,0.183,0.2013,0.1978,0.1532,0.1044,0.028,-0.0104,-0.0255,-0.0318,-0.0435,-0.0483,-0.0066,-0.0097,-0.0156,-0.0156,-0.0156,-0.0155,-0.0155,-0.0155,0.054,0.0661,0.0718,0.093,0.1041,0.1227,0.1346,0.1563,0.1775,0.2103,0.2265,0.2355,0.1966,0.0622,-0.0283,-0.0499,-0.0752,-0.0813,-0.0945,-0.0681,-0.0657,-0.0634,-0.0689,-0.0871,-0.0872,-0.1303,-0.1308,-0.1311]}],[{"header":{"parameterUnit":"m.s-1","parameterCategory":2,"la1":30.2991,"la2":30.254,"lo1":-89.0895,"lo2":-89.0444,"dy":0.0017,"dx":0.0017,"nx":28,"ny":28,"refTime":"2024-03-17T09:00:00:Z","depth":"2","parameterNumber":2,"parameterNumberName":"U-component_of_CURRENTS"},"data":[0,0,0,0,0,0,0,0,0,0,0,0,0,0,0,0,0,0,0,0,0,0,0,0,0,0,0,0,0,0,0,0,0,0,0,0,0,0,0,0,0,0,0,0,0,0,0,0,0,0,0,0,0,0,0,0,0,0,0.2554,0.2555,0,0.2593,0.2594,0.2594,0.2613,0.2613,0.2613,0.2613,0.2625,0.2625,0.2626,0,0,0,0,0,0,0,0,0,0,0,0,0,0.2516,0.2517,0.2554,0.2555,0.2555,0.2593,0.2594,0.2594,0.2613,0.2613,0.2613,0.2613,0.2625,0.2625,0.2626,0,0,0,0,0,0,0,0,0,0,0,0,0,0.2542,0.2517,0.2554,0.2569,0.2571,0.2593,0.2594,0.2595,0.2613,0.2613,0.2613,0.2613,0.2625,0.2625,0.2626,0.2629,0,0,0.2627,0.2628,0,0,0,0,0,0,0,0,0.254,0.2543,0.2566,0.2568,0.257,0.2599,0.2585,0.2605,0.2613,0.2597,0.2613,0.2613,0.2614,0.2615,0.2623,0.2629,0.263,0.2627,0.2628,0.2628,0.2628,0,0,0,0,0,0,0,0.2538,0.2541,0.2569,0.2567,0.2569,0.2581,0.2585,0.2589,0.2604,0.2598,0.2599,0.2604,0.2615,0.2622,0.2623,0.263,0.2627,0.2628,0.2628,0.2628,0.2704,0.2706,0,0,0,0,0,0,0.2533,0.254,0.2568,0.2571,0.2555,0.2582,0.2586,0.2589,0.2605,0.2607,0.2604,0.2605,0.2621,0.2622,0.2623,0.2672,0.2628,0.2628,0.2629,0.2703,0.2705,0.2707,0,0,0,0,0,0,0.2532,0.2535,0.2567,0.2556,0.2561,0.2582,0.2586,0.259,0.2612,0.261,0.2612,0.2625,0.2621,0.2623,0.2647,0.2671,0.2629,0.2629,0.2701,0.2703,0.2706,0.2741,0,0,0,0,0,0,0.2531,0.2534,0.2543,0.2556,0.2562,0.2592,0.2586,0.2591,0.2615,0.2616,0.2628,0.2628,0.2621,0.2647,0.2648,0.2671,0.2629,0.2699,0.2702,0.2705,0.2738,0.2745,0.2751,0,0,0,0,0,0.2529,0.2539,0.2543,0.2547,0.257,0.2593,0.2598,0.2612,0.2616,0.2631,0.2642,0.2628,0.2668,0.2648,0.2649,0.2673,0.2697,0.2701,0.2705,0.2735,0.2744,0.2751,0,0,0,0,0,0,0.2528,0.2542,0.2547,0.2561,0.2581,0.2596,0.2614,0.2622,0.2644,0.2649,0.2645,0.2646,0.2679,0.2675,0.2653,0.2708,0.2683,0.2687,0.2706,0.2714,0.272,0.2742,0.263,0,0,0,0,0,0.2531,0.2544,0.2559,0.2574,0.2584,0.2602,0.2616,0.2628,0.2644,0.2655,0.2662,0.2677,0.2694,0.2703,0.2715,0.274,0.2759,0.276,0.2767,0.2772,0.2793,0.2847,0.286,0.272,0.2719,0.2719,0,0,0.2532,0.2546,0.2551,0.2575,0.2592,0.2615,0.2612,0.264,0.2662,0.2652,0.2687,0.2698,0.2707,0.2738,0.2753,0.2738,0.2821,0.2777,0.2781,0.2799,0.2852,0.2866,0.2878,0.2722,0.2722,0.2721,0,0,0.2544,0.2557,0.2572,0.2594,0.2625,0.2636,0.2647,0.2673,0.2688,0.2718,0.2724,0.2759,0.277,0.2795,0.2804,0.2857,0.2853,0.2855,0.2902,0.2953,0.2965,0.2976,0.3009,0.3022,0.2857,0.2857,0.2857,0,0.2555,0.2565,0.2582,0.2609,0.2627,0.2647,0.2671,0.2693,0.2725,0.2748,0.2735,0.2799,0.2803,0.2858,0.2878,0.2872,0.2893,0.2865,0.2961,0.2972,0.2983,0.3014,0.3028,0.2859,0.2859,0.2858,0.2858,0,0.2572,0.259,0.2604,0.2641,0.2668,0.2691,0.2721,0.2756,0.2771,0.2794,0.2852,0.2867,0.2912,0.2915,0.291,0.299,0.2978,0.2961,0.2938,0.2999,0.3028,0.3042,0.2862,0.2861,0.2861,0.286,0,0,0.2569,0.2608,0.2614,0.2632,0.2684,0.2705,0.2757,0.2804,0.2845,0.288,0.2933,0.2976,0.2999,0.3015,0.3021,0.3062,0.3146,0.3047,0.3048,0.3074,0.3253,0.3196,0.3206,0.3143,0.3146,0.3148,0.324,0,0.2578,0.2613,0.2638,0.268,0.2697,0.2745,0.2788,0.2844,0.2884,0.2943,0.2986,0.3035,0.3031,0.3057,0.3106,0.3143,0.3188,0.3122,0.3197,0.3199,0.3137,0.3223,0.2955,0.3011,0.3254,0.3256,0.3258,0,0.2581,0.2603,0.2635,0.2689,0.2704,0.274,0.2821,0.287,0.2964,0.3,0.3077,0.3104,0.3198,0.3164,0.3284,0.3243,0.3263,0.3277,0.328,0.323,0.317,0.2993,0.3028,0.3282,0.328,0.3278,0.3277,0,0.2547,0.26,0.2619,0.264,0.2709,0.2745,0.2796,0.2889,0.2948,0.3052,0.3105,0.32,0.3266,0.3317,0.3369,0.3335,0.3478,0.3429,0.3395,0.339,0.3181,0.3152,0.3509,0.3509,0.3509,0.3509,0.3508,0,0.2532,0.255,0.2606,0.2618,0.2662,0.273,0.2809,0.2869,0.2982,0.3062,0.3141,0.3215,0.331,0.3394,0.3411,0.3468,0.3524,0.3433,0.3425,0.3184,0.3157,0.3402,0.3389,0.3512,0.3511,0.3511,0.351,0,0.2482,0.252,0.2552,0.2621,0.2643,0.2686,0.2812,0.287,0.2985,0.3094,0.3133,0.3271,0.3383,0.3454,0.355,0.353,0.357,0.3564,0.3272,0.3228,0.343,0.3417,0.354,0.3539,0.3538,0.3538,0.3537,0,0.2451,0.246,0.2535,0.2565,0.2595,0.2676,0.2726,0.2853,0.2917,0.3118,0.3149,0.3309,0.3381,0.3513,0.351,0.3541,0.3588,0.3296,0.3185,0.3462,0.3441,0.3429,0.3418,0.2913,0.2908,0.2903,0.29,0,0.2401,0.2437,0.2465,0.2512,0.2564,0.2624,0.2703,0.2748,0.2906,0.2988,0.3098,0.3179,0.3334,0.3257,0.3323,0.3295,0.327,0.3205,0.359,0.2952,0.288,0.2856,0.2864,0.2859,0.2863,0.2866,0.2868,0.287,0.2366,0.2378,0.2422,0.2455,0.2506,0.2528,0.2537,0.2618,0.2683,0.2763,0.2939,0.2975,0.305,0.3016,0.2938,0.2883,0.3102,0.2945,0.2955,0.2971,0.2887,0.2818,0.2769,0.2772,0.2775,0.2778,0.278,0,0.2318,0.2336,0.2363,0.2389,0.2378,0.2446,0.2478,0.2448,0.2445,0.2567,0.2637,0.2493,0.2478,0.2549,0.241,0.2421,0.2354,0.2311,0.2192,0.2237,0.2276,0.2151,0.1841,0.1837,0.1834,0.1831,0,0,0.23,0.2285,0.2284,0.2235,0.2256,0.2196,0.2184,0.2141,0.2168,0.2132,0.2148,0.2373,0.2491,0.2134,0.2095,0.1937,0.2058,0.1859,0.2623,0.2528,0.2562,0.2667,0.253,0,0,0,0,0]},{"header":{"parameterUnit":"m.s-1","parameterCategory":2,"la1":30.2991,"la2":30.254,"lo1":-89.0895,"lo2":-89.0444,"dy":0.0017,"dx":0.0017,"nx":28,"ny":28,"refTime":"2024-03-17T09:00:00:Z","depth":"2","parameterNumber":3,"parameterNumberName":"V-component_of_CURRENTS"},"data":[0,0,0,0,0,0,0,0,0,0,0,0,0,0,0,0,0,0,0,0,0,0,0,0,0,0,0,0,0,0,0,0,0,0,0,0,0,0,0,0,0,0,0,0,0,0,0,0,0,0,0,0,0,0,0,0,0,0,0.0216,0.0216,0,0.0159,0.0158,0.0157,0.0118,0.0117,0.0117,0.0117,0.0046,0.0044,0.0042,0,0,0,0,0,0,0,0,0,0,0,0,0,0.0238,0.0239,0.0216,0.0216,0.0215,0.0159,0.0158,0.0157,0.0118,0.0117,0.0117,0.0117,0.0046,0.0044,0.0042,0,0,0,0,0,0,0,0,0,0,0,0,0,0.0209,0.0239,0.0216,0.0189,0.0186,0.0159,0.0158,0.0157,0.0118,0.0117,0.0117,0.0117,0.0047,0.0044,0.0042,0.0032,0,0,0.0034,0.0033,0,0,0,0,0,0,0,0,0.0211,0.0208,0.0194,0.0191,0.0188,0.0146,0.014,0.0115,0.0118,0.0143,0.0117,0.0117,0.0079,0.0074,0.0062,0.0029,0.0026,0.0034,0.0032,0.0031,0.0031,0,0,0,0,0,0,0,0.0213,0.021,0.0192,0.0193,0.019,0.0162,0.0158,0.0135,0.0112,0.014,0.0138,0.0133,0.0077,0.0065,0.006,0.0025,0.0034,0.0032,0.003,0.0029,-0.0021,-0.0021,0,0,0,0,0,0,0.0225,0.0212,0.0194,0.0191,0.02,0.0162,0.0157,0.0159,0.0113,0.0106,0.0133,0.0131,0.0069,0.0063,0.0058,0.0056,0.0031,0.0029,0.0027,-0.0021,-0.0021,-0.0021,0,0,0,0,0,0,0.0226,0.0224,0.0197,0.0201,0.0195,0.0162,0.0164,0.0158,0.0149,0.0108,0.01,0.0131,0.0069,0.0061,0.0043,0.0053,0.0028,0.0025,-0.0021,-0.0021,-0.0021,0.0046,0,0,0,0,0,0,0.0227,0.0225,0.0227,0.0202,0.0196,0.019,0.0164,0.0157,0.0147,0.0144,0.0103,0.0096,0.0068,0.0047,0.004,0.0049,0.0023,-0.0022,-0.0021,-0.0021,0.0043,0.0048,0.0052,0,0,0,0,0,0.0228,0.0239,0.0228,0.0226,0.0201,0.019,0.0185,0.0159,0.0147,0.0148,0.012,0.0097,0.0044,0.0045,0.0037,0.0045,-0.0022,-0.0021,-0.0021,0.0041,0.0047,0.0052,0,0,0,0,0,0,0.0247,0.0236,0.0223,0.0228,0.0213,0.0184,0.0182,0.0165,0.0143,0.014,0.0101,0.0092,0.0078,0.0052,0.0054,0.0031,0.0007,0.0006,0.0057,0.0062,0.0067,0.0089,0.0021,0,0,0,0,0,0.0254,0.026,0.024,0.0243,0.024,0.0211,0.0203,0.0188,0.0166,0.0156,0.0128,0.0097,0.0073,0.0061,0.0034,0.0025,-0.0001,0.0023,0.0028,0.0032,0.0044,0.0012,0.0015,-0.0019,-0.0019,-0.0019,0,0,0.026,0.0255,0.0257,0.0247,0.0233,0.0238,0.0206,0.02,0.0204,0.0152,0.0146,0.0112,0.0073,0.006,0.0052,0.0042,0.0028,0.0033,0.0037,0.0046,0.0013,0.0016,0.002,-0.0019,-0.0019,-0.0019,0,0,0.0283,0.0275,0.0289,0.0282,0.0269,0.0258,0.0261,0.0238,0.0227,0.0215,0.0179,0.0155,0.0117,0.0094,0.0077,0.0091,0.0052,0.0078,0.0122,0.0092,0.0094,0.0097,0.0069,0.0069,0.0083,0.0083,0.0083,0,0.0289,0.0308,0.029,0.0301,0.0304,0.0274,0.0292,0.0277,0.025,0.0247,0.0223,0.0171,0.0136,0.0124,0.0126,0.0103,0.0079,0.0107,0.0099,0.0101,0.0102,0.0073,0.0071,0.0086,0.0086,0.0086,0.0085,0,0.0324,0.0336,0.0346,0.0355,0.0355,0.0366,0.035,0.0346,0.0328,0.0311,0.0292,0.0239,0.0211,0.0192,0.0163,0.0156,0.0133,0.0108,0.0089,0.011,0.0077,0.0075,0.0091,0.009,0.0089,0.0088,0,0,0.0346,0.0368,0.0371,0.039,0.0388,0.0398,0.0406,0.0409,0.0426,0.0381,0.039,0.0335,0.0305,0.0283,0.0239,0.021,0.0192,0.0169,0.0166,0.015,0.0125,0.0103,0.0097,0.0163,0.0163,0.0163,0.01,0,0.0379,0.0425,0.0423,0.0467,0.0492,0.0474,0.0491,0.0487,0.0474,0.0473,0.0414,0.0402,0.0341,0.033,0.0291,0.0221,0.0187,0.0211,0.0101,0.0098,0.0082,0.0094,0.0112,0.0057,0.0097,0.0097,0.0096,0,0.0417,0.0447,0.0501,0.0539,0.0549,0.0568,0.0599,0.0612,0.0598,0.0585,0.0554,0.0504,0.0459,0.04,0.0293,0.0311,0.0227,0.0164,0.016,0.0116,0.007,0.0042,0.005,0.0091,0.0091,0.0092,0.0092,0,0.0457,0.0502,0.0554,0.0565,0.0601,0.0621,0.0641,0.0647,0.0679,0.066,0.0675,0.0596,0.0573,0.0457,0.0323,0.0308,0.02,0.0161,0.006,0.0057,0.004,0.0036,0.0081,0.0081,0.0082,0.0082,0.0082,0,0.05,0.0539,0.058,0.0607,0.068,0.0679,0.0749,0.0752,0.0775,0.0835,0.0743,0.0761,0.0586,0.0499,0.0358,0.0209,0.0224,0.0075,0.0042,0.0063,0.0062,0.0064,0.0063,0.0079,0.008,0.008,0.0081,0,0.0536,0.0559,0.0624,0.0676,0.0702,0.0755,0.0833,0.0884,0.0892,0.0965,0.0965,0.089,0.0778,0.0595,0.0412,0.0272,0.0118,0.0057,0.0095,0.0068,-0.0016,-0.0013,-0.006,-0.0062,-0.0063,-0.0064,-0.0064,0,0.0559,0.0598,0.0683,0.0735,0.0762,0.0843,0.0906,0.0942,0.1009,0.1057,0.1099,0.1007,0.0964,0.0677,0.0409,0.0156,0.012,-0.0002,-0.0033,-0.0002,-0.0029,-0.0024,-0.002,-0.0031,-0.0032,-0.0032,-0.0032,0,0.0606,0.0636,0.0694,0.0805,0.0882,0.0982,0.1073,0.1146,0.1209,0.1259,0.1312,0.1277,0.1011,0.0752,0.0394,0.0217,0.0037,-0.0017,0.0009,0.0004,0.0021,-0.0004,-0.0,-0.0035,-0.0035,-0.0035,-0.0035,-0.0035,0.0644,0.0696,0.0778,0.0884,0.0982,0.1111,0.1201,0.1299,0.1415,0.1502,0.1466,0.1414,0.1124,0.0662,0.0355,0.0018,0.0031,-0.0093,-0.009,-0.0087,-0.007,-0.0056,-0.0123,-0.0124,-0.0124,-0.0124,-0.0124,0,0.0692,0.0755,0.0853,0.0981,0.1096,0.1143,0.1307,0.1393,0.1531,0.1595,0.1621,0.1342,0.1051,0.0712,0.0221,-0.0066,-0.0092,-0.0167,-0.0129,-0.0124,-0.0119,-0.0103,-0.0166,-0.0167,-0.0168,-0.0169,0,0,0.0721,0.0817,0.0868,0.1056,0.1153,0.131,0.1411,0.1528,0.1605,0.1656,0.1622,0.1557,0.1154,0.0796,0.0403,0.012,0.0062,0.0056,0.0119,0.0216,0.0223,-0.005,-0.0016,0,0,0,0,0]}],[{"header":{"parameterUnit":"m.s-1","parameterCategory":2,"la1":30.2991,"la2":30.254,"lo1":-89.0895,"lo2":-89.0444,"dy":0.0017,"dx":0.0017,"nx":28,"ny":28,"refTime":"2024-03-17T09:00:00:Z","depth":"4","parameterNumber":2,"parameterNumberName":"U-component_of_CURRENTS"},"data":[0,0,0,0,0,0,0,0,0,0,0,0,0,0,0,0,0,0,0,0,0,0,0,0,0,0,0,0,0,0,0,0,0,0,0,0,0,0,0,0,0,0,0,0,0,0,0,0,0,0,0,0,0,0,0,0,0,0,0.1567,0.1568,0,0.1634,0.1634,0.1635,0.1685,0.1685,0.1686,0.1687,0.1769,0.177,0.1772,0,0,0,0,0,0,0,0,0,0,0,0,0,0.1475,0.1477,0.1567,0.1568,0.1569,0.1634,0.1634,0.1635,0.1685,0.1685,0.1686,0.1687,0.1768,0.177,0.1772,0,0,0,0,0,0,0,0,0,0,0,0,0,0.1523,0.1477,0.1567,0.1604,0.1608,0.1634,0.1634,0.1635,0.1684,0.1685,0.1686,0.1687,0.1768,0.177,0.1772,0.1766,0,0,0.1779,0.178,0,0,0,0,0,0,0,0,0.1521,0.1526,0.1597,0.1601,0.1606,0.1654,0.1632,0.1681,0.1684,0.1653,0.1687,0.1688,0.1733,0.1738,0.1744,0.177,0.1773,0.178,0.1781,0.1782,0.1783,0,0,0,0,0,0,0,0.1517,0.1524,0.1591,0.1598,0.1604,0.1614,0.1622,0.1641,0.1684,0.1656,0.166,0.1671,0.1735,0.1742,0.1747,0.1775,0.1779,0.1782,0.1783,0.1784,0.1899,0.1901,0,0,0,0,0,0,0.1514,0.1521,0.1589,0.1593,0.1568,0.1615,0.1624,0.1636,0.1684,0.1693,0.167,0.1673,0.1738,0.1744,0.175,0.1835,0.1782,0.1784,0.1785,0.1898,0.19,0.1901,0,0,0,0,0,0,0.1511,0.1519,0.1586,0.156,0.157,0.1616,0.1629,0.1636,0.1681,0.1696,0.1705,0.1711,0.1739,0.1747,0.1801,0.1835,0.1785,0.1787,0.1896,0.1898,0.1901,0.1948,0,0,0,0,0,0,0.1508,0.1518,0.1541,0.156,0.1572,0.1625,0.1628,0.1637,0.1685,0.1691,0.1733,0.1739,0.174,0.1798,0.1804,0.1838,0.1789,0.1894,0.1897,0.19,0.1944,0.1952,0.1958,0,0,0,0,0,0.1505,0.1522,0.1541,0.1551,0.1596,0.1626,0.1633,0.1667,0.1686,0.171,0.1743,0.174,0.1822,0.1801,0.1808,0.1843,0.1892,0.1896,0.19,0.1941,0.195,0.1958,0,0,0,0,0,0,0.1494,0.153,0.1551,0.158,0.1615,0.1636,0.1665,0.1687,0.1731,0.175,0.1761,0.177,0.183,0.1832,0.1809,0.1886,0.1857,0.1862,0.1886,0.1895,0.1902,0.1907,0.1791,0,0,0,0,0,0.1502,0.1528,0.1562,0.159,0.1612,0.1647,0.1671,0.1696,0.173,0.1752,0.1781,0.1814,0.1843,0.1867,0.1891,0.1933,0.1943,0.1961,0.1968,0.1974,0.1983,0.203,0.2042,0.1914,0.1914,0.1914,0,0,0.1505,0.153,0.1547,0.1591,0.1622,0.1656,0.1664,0.1713,0.1747,0.1753,0.1818,0.1843,0.1861,0.191,0.1937,0.192,0.2016,0.1978,0.1983,0.199,0.2035,0.2048,0.2059,0.1916,0.1916,0.1915,0,0,0.1514,0.1552,0.1576,0.1609,0.1665,0.1686,0.1709,0.1756,0.1789,0.1845,0.1861,0.191,0.1954,0.1975,0.1988,0.205,0.2052,0.2062,0.2102,0.2147,0.2158,0.2168,0.2195,0.2207,0.2064,0.2064,0.2064,0,0.1524,0.1555,0.1589,0.1622,0.1655,0.1704,0.174,0.1776,0.1836,0.1869,0.1877,0.1965,0.1983,0.2039,0.2062,0.2066,0.2088,0.2065,0.2156,0.2166,0.2175,0.22,0.2213,0.2067,0.2067,0.2066,0.2066,0,0.1541,0.1582,0.1601,0.1659,0.1698,0.1739,0.1792,0.1844,0.1891,0.1925,0.2007,0.2036,0.209,0.2102,0.2102,0.2178,0.2172,0.2159,0.2132,0.219,0.2214,0.2226,0.2071,0.207,0.2069,0.2068,0,0,0.1522,0.1599,0.1611,0.1642,0.1725,0.1751,0.1824,0.1892,0.1946,0.201,0.2074,0.2133,0.2166,0.2184,0.2199,0.2236,0.2316,0.2232,0.2233,0.2254,0.2417,0.2268,0.2266,0.2325,0.2328,0.233,0.2406,0,0.1533,0.1587,0.1629,0.1692,0.1726,0.1796,0.1854,0.1927,0.1994,0.2067,0.2121,0.2188,0.2192,0.2231,0.2274,0.231,0.2351,0.2296,0.2362,0.2363,0.222,0.2276,0.2337,0.2415,0.2418,0.242,0.2421,0,0.1537,0.1573,0.1632,0.171,0.1734,0.1784,0.1891,0.1952,0.2064,0.2119,0.2206,0.2249,0.2335,0.2318,0.2423,0.2393,0.2418,0.2432,0.2435,0.2288,0.2236,0.2346,0.2443,0.2441,0.2439,0.2438,0.2437,0,0.1494,0.1574,0.162,0.1648,0.1745,0.1796,0.1863,0.1977,0.2041,0.2168,0.223,0.2326,0.2397,0.2446,0.2497,0.2475,0.2592,0.2557,0.2444,0.2434,0.2524,0.2513,0.2628,0.2628,0.2628,0.2628,0.2627,0,0.1471,0.1511,0.1608,0.1631,0.1697,0.1782,0.1877,0.1955,0.208,0.2151,0.2264,0.2326,0.2439,0.2513,0.2531,0.2528,0.2629,0.2462,0.2448,0.2541,0.2531,0.2532,0.252,0.263,0.263,0.2629,0.2629,0,0.141,0.1478,0.1532,0.1638,0.168,0.1733,0.1879,0.1934,0.2074,0.2173,0.2219,0.2366,0.2459,0.2542,0.2628,0.2564,0.2573,0.2547,0.2653,0.2642,0.2374,0.2363,0.2414,0.2409,0.2405,0.2402,0.2399,0,0.1377,0.1402,0.1521,0.1561,0.1615,0.1714,0.1775,0.1919,0.1982,0.2169,0.2195,0.2344,0.2423,0.2437,0.2527,0.2556,0.2529,0.251,0.2424,0.2372,0.2355,0.235,0.2346,0.2393,0.2392,0.2391,0.239,0,0.1308,0.1368,0.1411,0.1493,0.1562,0.1627,0.173,0.1764,0.1922,0.2063,0.2127,0.2176,0.2281,0.2344,0.2398,0.2405,0.2502,0.2469,0.2476,0.2395,0.2348,0.2333,0.2333,0.2377,0.2379,0.238,0.2381,0,0.1262,0.1272,0.1343,0.1403,0.148,0.1506,0.1581,0.1653,0.1733,0.1936,0.1952,0.2109,0.2255,0.2267,0.2307,0.2316,0.2272,0.218,0.2201,0.2217,0.2116,0.2025,0.1951,0,0,0,0,0,0.1208,0.1205,0.1246,0.1295,0.1364,0.1414,0.1527,0.1605,0.176,0.1755,0.1851,0.1933,0.2,0.2086,0.2057,0.2215,0.2277,0.2168,0.218,0.2303,0.2318,0.2217,0,0,0,0,0,0,0.1166,0.1202,0.1203,0.119,0.1209,0.1265,0.1332,0.1439,0.1458,0.1629,0.1687,0.1811,0.192,0.2004,0.202,0.2044,0.2009,0.2272,0.2267,0.2294,0.2308,0.2321,0.2222,0,0,0,0,0]},{"header":{"parameterUnit":"m.s-1","parameterCategory":2,"la1":30.2991,"la2":30.254,"lo1":-89.0895,"lo2":-89.0444,"dy":0.0017,"dx":0.0017,"nx":28,"ny":28,"refTime":"2024-03-17T09:00:00:Z","depth":"4","parameterNumber":3,"parameterNumberName":"V-component_of_CURRENTS"},"data":[0,0,0,0,0,0,0,0,0,0,0,0,0,0,0,0,0,0,0,0,0,0,0,0,0,0,0,0,0,0,0,0,0,0,0,0,0,0,0,0,0,0,0,0,0,0,0,0,0,0,0,0,0,0,0,0,0,0,0.0193,0.0192,0,0.016,0.016,0.016,0.014,0.014,0.014,0.014,0.0092,0.0091,0.009,0,0,0,0,0,0,0,0,0,0,0,0,0,0.0202,0.0202,0.0193,0.0192,0.0192,0.016,0.016,0.0159,0.014,0.014,0.014,0.014,0.0092,0.0091,0.009,0,0,0,0,0,0,0,0,0,0,0,0,0,0.0186,0.0202,0.0193,0.0179,0.0177,0.0161,0.016,0.0159,0.014,0.014,0.014,0.014,0.0093,0.0091,0.0089,0.008,0,0,0.0084,0.0083,0,0,0,0,0,0,0,0,0.0187,0.0186,0.0181,0.018,0.0178,0.0154,0.0146,0.0132,0.014,0.0154,0.014,0.014,0.0112,0.0108,0.0102,0.0078,0.0076,0.0084,0.0083,0.0082,0.0081,0,0,0,0,0,0,0,0.0189,0.0187,0.018,0.0181,0.0179,0.0162,0.016,0.0143,0.0133,0.0153,0.0151,0.0148,0.0111,0.0104,0.0101,0.0075,0.0084,0.0082,0.0081,0.008,0.0046,0.0046,0,0,0,0,0,0,0.0195,0.0189,0.0181,0.0179,0.0183,0.0162,0.0159,0.0162,0.0134,0.013,0.0148,0.0147,0.0107,0.0103,0.0099,0.0101,0.0082,0.008,0.0079,0.0046,0.0046,0.0046,0,0,0,0,0,0,0.0196,0.0195,0.0182,0.0183,0.018,0.0162,0.0165,0.0161,0.0159,0.0131,0.0126,0.015,0.0107,0.0102,0.009,0.0099,0.0079,0.0078,0.0045,0.0046,0.0046,0.0096,0,0,0,0,0,0,0.0196,0.0196,0.0199,0.0183,0.018,0.0179,0.0165,0.0161,0.0157,0.0156,0.0131,0.0126,0.0107,0.0093,0.0088,0.0096,0.0076,0.0045,0.0046,0.0046,0.0095,0.0098,0.0102,0,0,0,0,0,0.0197,0.0206,0.02,0.0199,0.0186,0.018,0.0177,0.0163,0.0158,0.016,0.0143,0.0127,0.0092,0.0092,0.0086,0.0094,0.0045,0.0045,0.0046,0.0093,0.0098,0.0102,0,0,0,0,0,0,0.0211,0.0205,0.0198,0.0204,0.0195,0.0177,0.0178,0.0168,0.0157,0.0156,0.0129,0.0124,0.0116,0.0097,0.0098,0.0084,0.0065,0.0065,0.0103,0.0107,0.0111,0.0126,0.0075,0,0,0,0,0,0.0216,0.0223,0.021,0.0215,0.0214,0.0197,0.0192,0.0184,0.0171,0.0166,0.0148,0.0128,0.0112,0.0104,0.0086,0.008,0.0054,0.008,0.0084,0.0087,0.0094,0.006,0.0061,0.0047,0.0047,0.0047,0,0,0.0222,0.022,0.0223,0.0219,0.0211,0.0217,0.0194,0.0194,0.0198,0.0162,0.0163,0.014,0.0112,0.0106,0.01,0.0092,0.0076,0.0087,0.009,0.0096,0.006,0.0062,0.0063,0.0048,0.0047,0.0047,0,0,0.024,0.0238,0.025,0.0246,0.024,0.0233,0.0236,0.0222,0.0217,0.0212,0.0187,0.0171,0.0148,0.0131,0.0119,0.013,0.0095,0.0123,0.0155,0.0121,0.0122,0.0123,0.0089,0.0086,0.0126,0.0126,0.0126,0,0.0246,0.0262,0.0251,0.0261,0.0266,0.0245,0.0261,0.0252,0.0235,0.0234,0.022,0.0185,0.0161,0.0152,0.0156,0.0139,0.0113,0.0143,0.0127,0.0127,0.0126,0.0091,0.0087,0.0129,0.0128,0.0128,0.0128,0,0.0273,0.0285,0.0293,0.0304,0.0306,0.0316,0.0306,0.0305,0.0296,0.0284,0.0272,0.0235,0.0217,0.0203,0.0184,0.0173,0.0152,0.0135,0.0118,0.0131,0.0093,0.0088,0.0132,0.0131,0.0131,0.013,0,0,0.0288,0.0309,0.0313,0.033,0.0332,0.0341,0.0349,0.0353,0.0366,0.0336,0.0341,0.0307,0.0285,0.0269,0.0238,0.0209,0.018,0.0176,0.0173,0.0148,0.0104,0.0088,0.0081,0.0158,0.0158,0.0158,0.0078,0,0.0313,0.035,0.0352,0.0389,0.0409,0.0399,0.0413,0.0411,0.0404,0.0402,0.0357,0.0351,0.031,0.0304,0.0268,0.0205,0.017,0.0203,0.0091,0.0088,0.0077,0.0076,0.0156,0.0074,0.0072,0.0072,0.0071,0,0.0339,0.0364,0.0408,0.0442,0.0451,0.047,0.0496,0.0508,0.0494,0.0485,0.0462,0.0425,0.0383,0.0344,0.0242,0.0264,0.0192,0.0136,0.0131,0.0098,0.0064,0.0057,0.0062,0.0062,0.0063,0.0064,0.0064,0,0.0363,0.0403,0.0446,0.0457,0.049,0.051,0.053,0.0535,0.056,0.0543,0.0549,0.0484,0.046,0.0361,0.0245,0.0243,0.0123,0.0103,0.0018,0.0015,0.0031,0.0031,0.0026,0.0026,0.0027,0.0027,0.0027,0,0.0389,0.0423,0.0465,0.0488,0.0548,0.0554,0.0613,0.0617,0.0632,0.0665,0.0601,0.0597,0.0464,0.0377,0.0262,0.0127,0.0132,0.0024,-0.0005,0.0053,0.0057,0.0027,0.0028,0.0024,0.0024,0.0025,0.0025,0,0.0407,0.0432,0.0487,0.0538,0.0563,0.0608,0.068,0.0717,0.0722,0.0759,0.0757,0.0684,0.057,0.0424,0.026,0.0159,0.0024,-0.0028,0.0048,0.0024,-0.0067,-0.0063,-0.0128,-0.0129,-0.013,-0.0131,-0.0132,0,0.0418,0.045,0.0531,0.0576,0.0606,0.0677,0.0728,0.0762,0.0805,0.0811,0.0826,0.0732,0.066,0.0425,0.026,0.0033,-0.0003,-0.0076,-0.0075,-0.006,-0.0083,-0.0076,-0.007,-0.0133,-0.0134,-0.0134,-0.0134,0,0.0442,0.0474,0.0523,0.0618,0.0686,0.0768,0.084,0.0878,0.0914,0.0916,0.0886,0.0759,0.0625,0.0431,0.0252,0.0088,-0.003,-0.0088,-0.0087,-0.0086,-0.0068,-0.0087,-0.008,-0.0138,-0.0137,-0.0137,-0.0137,0,0.0463,0.0501,0.057,0.0655,0.0745,0.083,0.087,0.0915,0.0957,0.0956,0.0942,0.0791,0.0706,0.0459,0.0295,0.013,0.0084,0.0027,0.0021,0.0023,0.0085,0.0131,0.01,0,0,0,0,0,0.0479,0.0522,0.06,0.0694,0.0785,0.0842,0.0932,0.0963,0.0994,0.0983,0.0967,0.084,0.0594,0.0489,0.0323,0.0261,0.0047,0.0058,-0.0024,-0.0157,-0.0153,-0.0108,0,0,0,0,0,0,0.0489,0.0559,0.0597,0.0713,0.0782,0.0887,0.0949,0.0973,0.097,0.0971,0.0848,0.0785,0.0551,0.0688,0.0315,0.0264,0.0186,-0.0054,-0.0058,-0.0159,-0.0156,-0.0152,-0.0105,0,0,0,0,0]}]]